Alexandria, LA

1:30 AM CST on November 21, 2017 (GMT -0600)
Alexandria International

Weather History for KAEX - December, 1999

Change the Weather History Date:

Sunday, December 26, 1999

  Actual Average Record
Temperature  
Mean Temperature 47 °F 49 °F  
Max Temperature 66 °F 59 °F 81 °F (2015)
Min Temperature 28 °F 40 °F 9 °F (1983)
Degree Days  
Heating Degree Days 18 16  
Month to date heating degree days 385  
Since 1 July heating degree days 710  
Moisture  
Dew Point 34 °F    
Average Humidity 66    
Maximum Humidity 96    
Minimum Humidity 33    
Precipitation  
Precipitation 0.00 in 0.17 in 7.20 in (1982)
Month to date precipitation 5.43  
Year to date precipitation 55.23  
Snow  
Snow 0.00 in - 0.00 in ()
Month to date snowfall  
Since 1 July snowfall  
Snow Depth -    
Sea Level Pressure  
Sea Level Pressure 30.37 in    
Wind  
Wind Speed 2 mph (West)    
Max Wind Speed 10 mph    
Max Gust Speed -    
Visibility 10 miles    
Events      
T = Trace of Precipitation, MM = Missing Value Source: NWS Daily Summary

Daily Weather History Graph

Daily Weather History Graph

Search for Another Location

Airport or City:

Trip Planner

Search our weather history database for the weather conditions in past years. The results will help you decide how hot, cold, wet, or windy it might be!

Date:

Astronomy

Dec. 26, 1999 Rise Set
Actual Time 7:07 AM CST 5:14 PM CST
Civil Twilight 6:40 AM CST 5:41 PM CST
Nautical Twilight 6:10 AM CST 6:11 PM CST
Astronomical Twilight 5:40 AM CST 6:41 PM CST
Moon 9:51 PM CST (12/26) 10:31 AM CST (12/26)
Length of Visible Light 11h 00m
Length of Day
10h 07m
Waning Gibbous, 79% of the Moon is Illuminated
Dec 26
Waning Gibbous
Dec 29
Last Quarter
Jan 6
New
Jan 14
First Quarter
Jan 20
Full

Hourly Weather History & Observations

Time (CST) Temp. Windchill Dew Point Humidity Pressure Visibility Wind Dir Wind Speed Gust Speed Precip Events Conditions
12:53 AM 30.9 °F - 28.9 °F 92% 30.48 in 10.0 mi Calm Calm - N/A   Clear
1:53 AM 32.0 °F - 28.9 °F 88% 30.48 in 10.0 mi Calm Calm - N/A   Clear
2:53 AM 30.9 °F - 28.0 °F 89% 30.46 in 10.0 mi Calm Calm - N/A   Clear
3:53 AM 30.0 °F 26.5 °F 28.0 °F 92% 30.44 in 10.0 mi ESE 3.5 mph - N/A   Clear
4:53 AM 30.0 °F - 28.0 °F 92% 30.44 in 10.0 mi Calm Calm - N/A   Clear
5:53 AM 28.0 °F - 27.0 °F 96% 30.44 in 10.0 mi Calm Calm - N/A   Clear
6:53 AM 28.0 °F - 26.1 °F 92% 30.46 in 10.0 mi Calm Calm - N/A   Clear
7:53 AM 30.0 °F - 28.0 °F 92% 30.47 in 10.0 mi Calm Calm - N/A   Clear
8:53 AM 37.9 °F - 32.0 °F 79% 30.46 in 10.0 mi Calm Calm - N/A   Clear
9:53 AM 46.9 °F - 36.0 °F 66% 30.46 in 10.0 mi WSW 4.6 mph - N/A   Clear
10:53 AM 54.0 °F - 35.1 °F 49% 30.45 in 10.0 mi West 8.1 mph - N/A   Clear
11:53 AM 59.0 °F - 35.1 °F 41% 30.42 in 10.0 mi WNW 8.1 mph - N/A   Clear
12:53 PM 63.0 °F - 36.0 °F 37% 30.37 in 10.0 mi WNW 5.8 mph - N/A   Clear
1:53 PM 66.0 °F - 36.0 °F 33% 30.33 in 10.0 mi West 8.1 mph - N/A   Clear
2:53 PM 66.9 °F - 37.0 °F 33% 30.30 in 10.0 mi West 9.2 mph - N/A   Clear
3:53 PM 66.9 °F - 37.9 °F 34% 30.29 in 10.0 mi WNW 9.2 mph - N/A   Clear
4:53 PM 64.0 °F - 39.0 °F 40% 30.27 in 10.0 mi West 10.4 mph - N/A   Clear
5:53 PM 57.0 °F - 39.0 °F 51% 30.27 in 10.0 mi Calm Calm - N/A   Clear
6:53 PM 52.0 °F - 39.0 °F 61% 30.27 in 10.0 mi Calm Calm - N/A   Clear
7:53 PM 51.1 °F - 39.0 °F 63% 30.26 in 10.0 mi Calm Calm - N/A   Clear
8:53 PM 48.0 °F - 37.9 °F 68% 30.25 in 10.0 mi Calm Calm - N/A   Clear
9:53 PM 51.1 °F - 39.9 °F 66% 30.25 in 10.0 mi West 3.5 mph - N/A   Clear
10:53 PM 50.0 °F - 39.9 °F 68% 30.24 in 10.0 mi WNW 3.5 mph - N/A   Clear
11:53 PM 51.1 °F - 41.0 °F 68% 30.23 in 10.0 mi Variable 5.8 mph - N/A   Clear